www.pogodaiklimat.ru

Погода и климат >> Архив погоды >> Венгрия >> Шармеллек


ПОГОДА в Шармеллеке

  • Прогноз погоды в Шармеллеке
  • Монитор погоды в Шармеллеке

АРХИВ ПОГОДЫ в Шармеллеке

Время (UTC), дата Ветер
(напр.,м/с)
 
Видим.   Явления Облачность Т
(С)
Тd
(С)
f
(%)
Тe
(С)
Тes
(С)
Комфортность P
(гПа)
Po
(гПа)
Тmin
(С)
Tmax
(С)
R
(мм)
R24
(мм)
S
(см)
22 10.06 СЗ 2 н/о н/о +20.2 +18.9 92 +24 +24 комфорт 1012.8 998.7
23 10.06 СВ 1 н/о н/о +19.3 +18.6 96 +23 +23 комфорт 1012.8 998.6
00 11.06 штиль 0 н/о н/о +18.4 +17.9 97 +19 +19 1012.4 998.2
01 11.06 СЗ 1 н/о н/о +18.1 +17.6 97 +19 +19 1012.2 998.0
02 11.06 СВ 1 н/о н/о +17.9 +17.6 98 +19 +19 1011.6 997.4
03 11.06 штиль 0 н/о н/о +17.4 +17.2 99 +17 +17 1011.4 997.2
04 11.06 В 2 н/о н/о +20.5 +19.2 92 +25 +25 комфорт 1011.5 997.4
05 11.06 В 2 н/о н/о +22.1 +20.2 89 +28 +28 душно 1011.2 997.2
06 11.06 В 2 н/о н/о +24.7 +20.8 79 +31 +31 очень
душно
1011.8 997.9 +17.0
07 11.06 В 2 н/о н/о +25.5 +21.2 77 +32 +32 очень
душно
1011.9 998.0
08 11.06 В 4 н/о н/о +26.2 +21.6 76 +34 +34 очень
душно
1011.8 998.0
09 11.06 В 3 н/о н/о +27.9 +22.2 71 +36 +36 очень
душно
1012.0 998.2
10 11.06 ЮВ 4 н/о н/о +29.2 +18.9 54 +35 +35 очень
душно
1011.9 998.2
11 11.06 ЮВ 3 н/о н/о +30.0 +19.1 52 +35 +35 очень
душно
1011.7 998.0
12 11.06 ЮВ 4
{7}
н/о н/о +30.4 +19.1 51 +36 +36 очень
душно
1011.2 997.6
13 11.06 ЮВ 3 н/о н/о +29.9 +18.7 51 +35 +35 очень
душно
1011.1 997.4
14 11.06 ЮВ 3 н/о н/о +30.7 +19.4 51 +36 +36 очень
душно
1010.7 997.1
15 11.06 ЮВ 3 н/о н/о +30.2 +19.3 52 +36 +36 очень
душно
1010.1 996.5
16 11.06 Ю 3 н/о н/о +30.0 +18.8 51 +35 +35 очень
душно
1010.3 996.7
17 11.06 ЮВ 3 н/о н/о +29.2 +18.9 54 +35 +35 очень
душно
1010.8 997.1
18 11.06 ЮВ 2 н/о н/о +27.0 +18.8 61 +32 +32 очень
душно
1011.3 997.5 +31.0
19 11.06 Ю 1 н/о н/о +26.0 +18.9 65 +31 +31 очень
душно
1011.3 997.5
20 11.06 СЗ 1 н/о н/о +22.8 +19.2 80 +29 +29 очень
душно
1012.8 998.8
21 11.06 штиль 0 н/о н/о +22.3 +19.3 83 +28 +28 душно 1013.2 999.2
22 11.06 З 2 н/о н/о +21.7 +19.6 88 +27 +27 душно 1013.5 999.4
23 11.06 Ю 1 н/о н/о +22.4 +16.9 71 +27 +27 душно 1013.2 999.2
00 12.06 ЮВ 3 н/о н/о +20.8 +16.4 76 +25 +25 комфорт 1011.9 997.8
01 12.06 В 4 н/о н/о +20.9 +14.8 68 +24 +24 комфорт 1010.5 996.4
02 12.06 З 3 н/о н/о +19.1 +14.8 76 +21 +21 комфорт 1011.0 996.8
03 12.06 штиль 0 н/о н/о +19.2 +15.1 77 +21 +21 комфорт 1011.8 997.6
04 12.06 З 1 н/о н/о +18.9 +15.8 82 +21 +21 комфорт 1012.4 998.2
05 12.06 штиль 0 н/о н/о +20.8 +17.0 79 +24 +24 комфорт 1012.6 998.5
06 12.06 Ю 3 н/о н/о +23.3 +18.4 74 +29 +29 душно 1012.8 998.8 +18.2
07 12.06 ЮВ 3 н/о н/о +24.0 +18.6 72 +29 +29 душно 1012.9 998.9
08 12.06 ЮВ 2 н/о н/о +25.9 +19.5 68 +31 +31 очень
душно
1012.7 998.8
09 12.06 ЮВ 3 н/о н/о +27.3 +19.9 64 +33 +33 очень
душно
1012.6 998.8
10 12.06 ЮВ 4 н/о н/о +27.9 +19.7 61 +34 +34 очень
душно
1012.4 998.6
11 12.06 ЮВ 5 н/о н/о +28.4 +19.1 57 +34 +34 очень
душно
1012.1 998.4
12 12.06 ЮВ 3
{7}
н/о н/о +29.7 +20.0 56 +36 +36 очень
душно
1011.5 997.8
13 12.06 ЮВ 3 н/о н/о +29.9 +19.6 54 +36 +36 очень
душно
1011.2 997.5
14 12.06 ЮВ 4 н/о н/о +30.0 +20.0 55 +36 +36 очень
душно
1010.9 997.2
15 12.06 Ю 4
{7}
н/о н/о +29.9 +19.9 55 +36 +36 очень
душно
1010.5 996.8
16 12.06 ЮВ 3 н/о н/о +29.8 +19.8 55 +36 +36 очень
душно
1010.3 996.6
17 12.06 ЮВ 4 н/о н/о +28.9 +19.2 56 +34 +34 очень
душно
1010.0 996.3
18 12.06 ЮВ 3 н/о н/о +26.8 +18.9 62 +32 +32 очень
душно
1010.2 996.4 +30.2
19 12.06 ЮВ 2 н/о н/о +25.8 +19.0 66 +31 +31 очень
душно
1010.5 996.7
20 12.06 В 2 н/о н/о +24.9 +18.8 69 +30 +30 душно 1011.2 997.3
21 12.06 В 2 н/о н/о +23.2 +18.7 76 +29 +29 душно 1011.5 997.5
22 12.06 В 3 н/о н/о +23.6 +18.9 75 +28 +28 душно 1011.6 997.6
23 12.06 В 3 н/о н/о +22.8 +18.6 77 +29 +29 очень
душно
1011.5 997.5
00 13.06 В 2 н/о н/о +21.8 +18.2 80 +27 +27 душно 1011.5 997.5
01 13.06 В 3 н/о н/о +22.1 +17.9 77 +27 +27 душно 1011.3 997.3
02 13.06 В 3 н/о н/о +21.7 +17.9 79 +26 +26 душно 1011.3 997.3
03 13.06 В 3 н/о н/о +21.1 +17.7 81 +25 +25 комфорт 1011.4 997.3
04 13.06 В 3 н/о н/о +21.7 +17.9 79 +26 +26 душно 1011.5 997.5
05 13.06 В 2 н/о н/о +22.3 +18.7 80 +28 +28 душно 1011.8 997.8
06 13.06 ЮВ 2 н/о н/о +24.5 +19.6 74 +30 +30 очень
душно
1012.3 998.4 +20.7
07 13.06 Ю 2 н/о н/о +25.1 +20.4 75 +31 +31 очень
душно
1012.5 998.6
08 13.06 ЮВ 2 н/о н/о +26.4 +20.7 71 +33 +33 очень
душно
1012.4 998.6
09 13.06 ЮВ 2 н/о н/о +28.0 +22.3 71 +37 +37 очень
душно
1012.5 998.7
10 13.06 Ю 2 н/о н/о +28.8 +22.5 69 +38 +38 очень
душно
1012.4 998.7
11 13.06 ЮВ 3 н/о н/о +29.8 +22.5 65 +39 +39 очень
душно
1012.3 998.6
12 13.06 ЮЗ 3
{7}
н/о н/о +31.3 +20.6 53 +38 +38 очень
душно
1011.8 998.2
13 13.06 ЮЗ 3 н/о н/о +31.4 +19.7 50 +37 +37 очень
душно
1011.7 998.1
14 13.06 ЮЗ 5 н/о н/о +31.4 +19.7 50 +37 +37 очень
душно
1011.8 998.2
15 13.06 ЮЗ 4
{7}
н/о н/о +31.2 +18.6 47 +36 +36 очень
душно
1011.8 998.2
16 13.06 Ю 4 н/о н/о +30.7 +18.8 49 +36 +36 очень
душно
1011.8 998.2
17 13.06 Ю 3 н/о н/о +30.2 +19.3 52 +36 +36 очень
душно
1011.9 998.2
18 13.06 ЮЗ 2 н/о н/о +27.9 +17.4 53 +32 +32 душно 1012.0 998.2 +31.6
19 13.06 ЮЗ 3 н/о н/о +26.4 +17.5 58 +31 +31 душно 1012.1 998.3
20 13.06 Ю 2 н/о н/о +23.8 +18.2 71 +28 +28 душно 1012.6 998.6
21 13.06 ЮЗ 3 н/о н/о +22.6 +16.6 69 +27 +27 душно 1013.1 999.1
22 13.06 Ю 2 н/о н/о +21.8 +15.6 68 +25 +25 комфорт 1013.6 999.5
23 13.06 ЮВ 2 н/о н/о +19.8 +16.8 83 +23 +23 комфорт 1014.4 1000.2
00 14.06 Ю 2 н/о н/о +18.0 +15.3 84 +19 +19 1014.4 1000.1
01 14.06 Ю 2 н/о н/о +18.0 +14.7 81 +19 +19 1014.5 1000.2
02 14.06 ЮВ 2 н/о н/о +16.4 +14.1 86 +16 +16 1014.5 1000.2
03 14.06 В 1 н/о н/о +15.2 +14.7 97 +16 +16 1015.5 1001.1
04 14.06 СВ 1 н/о н/о +15.3 +14.5 95 +16 +16 1016.0 1001.6
05 14.06 штиль 0 н/о н/о +18.0 +16.0 88 +18 +18 1016.3 1002.0
06 14.06 З 1 н/о н/о +20.4 +15.4 73 +24 +24 комфорт 1017.0 1002.8 +14.4
07 14.06 З 2 н/о н/о +21.9 +17.1 74 +26 +26 душно 1017.2 1003.1
08 14.06 СЗ 4 н/о н/о +25.4 +18.6 66 +30 +30 душно 1017.5 1003.5
09 14.06 С 4
{9}
н/о н/о +27.4 +20.5 66 +34 +34 очень
душно
1017.4 1003.5
10 14.06 С 5 н/о н/о +28.2 +20.2 62 +35 +35 очень
душно
1017.5 1003.7
11 14.06 С 3 н/о н/о +29.1 +20.3 59 +36 +36 очень
душно
1017.5 1003.7
12 14.06 С 3 н/о н/о +30.1 +20.9 58 +37 +37 очень
душно
1017.1 1003.4
13 14.06 С 2 н/о н/о +30.4 +20.9 57 +38 +38 очень
душно
1017.0 1003.3
14 14.06 СВ 1 н/о н/о +31.1 +20.7 54 +38 +38 очень
душно
1016.5 1002.8
15 14.06 С 1 н/о н/о +31.4 +20.0 51 +38 +38 очень
душно
1016.2 1002.5
16 14.06 С 1 н/о н/о +31.6 +20.2 51 +38 +38 очень
душно
1015.9 1002.3
17 14.06 штиль 0 н/о н/о +31.4 +20.7 53 +38 +38 очень
душно
1015.6 1001.9
18 14.06 ЮВ 1 н/о н/о +28.4 +21.9 68 +37 +37 очень
душно
1015.6 1001.8 +31.8
19 14.06 штиль 0 н/о н/о +26.7 +21.5 73 +34 +34 очень
душно
1015.6 1001.7
20 14.06 Ю 1 н/о н/о +24.7 +21.0 80 +31 +31 очень
душно
1016.2 1002.2
21 14.06 С 1 н/о н/о +22.3 +21.5 95 +29 +29 очень
душно
1016.4 1002.3
22 14.06 С 1 н/о н/о +21.9 +20.7 93 +28 +28 душно 1016.1 1002.0
23 14.06 СЗ 1 н/о н/о +20.7 +20.0 96 +26 +26 душно 1016.0 1001.8
00 15.06 С 1 н/о н/о +20.0 +19.3 96 +24 +24 комфорт 1015.7 1001.5
01 15.06 СЗ 1 н/о н/о +19.3 +18.6 96 +23 +23 комфорт 1015.6 1001.4
02 15.06 СЗ 1 н/о н/о +18.8 +18.5 98 +21 +21 комфорт 1015.1 1000.9
03 15.06 штиль 0 н/о н/о +18.4 +18.1 98 +19 +19 1015.0 1000.8
04 15.06 штиль 0 н/о н/о +18.3 +18.0 98 +19 +19 1015.2 1000.9
05 15.06 штиль 0 н/о н/о +21.0 +20.5 97 +26 +26 душно 1014.6 1000.5
06 15.06 Ю 1 н/о н/о +23.6 +21.5 88 +30 +30 очень
душно
1014.6 1000.6 +18.2
07 15.06 ЮЗ 2 н/о н/о +24.2 +21.7 86 +31 +31 очень
душно
1014.6 1000.6
08 15.06 ЮЗ 2 н/о н/о +25.5 +21.4 78 +32 +32 очень
душно
1014.6 1000.7
09 15.06 Ю 3 н/о н/о +28.2 +21.2 66 +36 +36 очень
душно
1014.4 1000.6
10 15.06 Ю 4 н/о н/о +28.8 +21.3 64 +36 +36 очень
душно
1014.4 1000.6
11 15.06 Ю 3 н/о н/о +29.4 +20.6 59 +36 +36 очень
душно
1014.0 1000.3
12 15.06 Ю 3
{7}
н/о н/о +29.1 +20.8 61 +36 +36 очень
душно
1013.6 999.9
13 15.06 Ю 3 н/о н/о +29.9 +21.3 60 +38 +38 очень
душно
1013.3 999.6
14 15.06 Ю 3 н/о н/о +30.5 +21.9 60 +39 +39 очень
душно
1013.1 999.4
15 15.06 ЮВ 2 н/о н/о +30.5 +21.6 59 +39 +39 очень
душно
1011.7 998.1
16 15.06 Ю 3 н/о н/о +29.4 +21.6 63 +37 +37 очень
душно
1011.6 997.9
17 15.06 ЮВ 2 н/о н/о +29.2 +22.2 66 +38 +38 очень
душно
1011.0 997.3
18 15.06 штиль 0 н/о н/о +27.7 +23.3 77 +37 +37 очень
душно
1011.2 997.4 +30.9
19 15.06 В 1 н/о н/о +26.4 +22.3 78 +34 +34 очень
душно
1011.2 997.4
20 15.06 В 1 н/о н/о +24.8 +22.3 86 +32 +32 очень
душно
1011.4 997.5
21 15.06 СЗ 1 н/о н/о +22.7 +21.7 94 +30 +30 очень
душно
1011.8 997.8
22 15.06 штиль 0 н/о н/о +23.3 +22.1 93 +32 +32 очень
душно
1011.9 997.9
23 15.06 СЗ 1 н/о н/о +21.9 +21.1 95 +28 +28 душно 1011.8 997.8
00 16.06 З 1 н/о н/о +21.8 +20.8 94 +28 +28 душно 1011.7 997.7
01 16.06 штиль 0 н/о н/о +21.9 +20.9 94 +28 +28 душно 1011.5 997.5
02 16.06 СЗ 2 н/о н/о +21.1 +20.4 96 +26 +26 душно 1011.4 997.3
03 16.06 С 1 н/о н/о +20.2 +19.7 97 +25 +25 комфорт 1011.5 997.4
04 16.06 СЗ 2 н/о н/о +20.5 +19.7 95 +25 +25 комфорт 1011.6 997.5
05 16.06 С 2 н/о н/о +22.4 +20.3 88 +29 +29 очень
душно
1011.7 997.7
06 16.06 СЗ 2 н/о н/о +24.4 +19.9 76 +30 +30 очень
душно
1012.2 998.3 +19.7
07 16.06 С 5 н/о н/о +25.3 +18.5 66 +30 +30 душно 1012.6 998.7
08 16.06 С 6 н/о н/о +26.1 +19.0 65 +31 +31 очень
душно
1013.2 999.3
09 16.06
{11}
н/о н/о +27.4 +20.0 64 1013.6 999.8
10 16.06 С 7 н/о н/о +26.7 +18.8 62 +32 +32 очень
душно
1013.6 999.8
11 16.06 С 6 н/о н/о +28.1 +19.6 60 +34 +34 очень
душно
1013.9 1000.1
12 16.06 С 7
{11}
н/о н/о +27.9 +19.4 60 +34 +34 очень
душно
1013.4 999.6
13 16.06 С 8 н/о н/о +28.2 +18.9 57 +33 +33 очень
душно
1013.2 999.4
14 16.06 С 8 н/о н/о +26.8 +18.9 62 +32 +32 очень
душно
1013.0 999.2
15 16.06 С 8
{14}
н/о н/о +26.7 +18.3 60 +31 +31 душно 1013.3 999.5
16 16.06 С 7 н/о н/о +25.9 +17.5 60 +30 +30 душно 1013.4 999.5
17 16.06 С 8 н/о н/о +24.6 +17.1 63 +28 +28 душно 1014.6 1000.7
18 16.06 С 6
{12}
н/о н/о +21.9 +17.5 76 +26 +26 душно 1014.5 1000.4 +28.6 0.6
19 16.06 С 8 н/о н/о +21.9 +16.8 73 +26 +26 душно 1014.9 1000.8
20 16.06 С 9 н/о н/о +20.6 +16.6 78 +23 +23 комфорт 1016.9 1002.7
21 16.06 С 10
{15}
н/о н/о +19.0 +16.6 86 +19 +19 1016.7 1002.5
22 16.06 С 7 н/о н/о +19.3 +16.3 83 +21 +21 комфорт 1016.4 1002.2
23 16.06 С 3 н/о н/о +19.2 +16.2 83 +21 +21 комфорт 1016.8 1002.6
00 17.06 СВ 1
{7}
н/о н/о +19.1 +15.8 81 +22 +22 комфорт 1017.9 1003.6 0.4
01 17.06 СЗ 2 н/о н/о +18.7 +15.8 83 +20 +20 1018.0 1003.7
02 17.06 СЗ 5 н/о н/о +17.9 +15.3 85 +17 +17 1017.5 1003.2
03 17.06 СЗ 4 н/о н/о +17.6 +15.2 86 +17 +17 1017.5 1003.2
04 17.06 СВ 3 н/о н/о +17.7 +15.1 85 +18 +18 1018.3 1004.0
05 17.06 С 4 н/о н/о +18.7 +15.4 81 +20 +20 1018.3 1004.0
06 17.06 С 5
{7}
н/о н/о +20.4 +16.0 76 +23 +23 комфорт 1018.3 1004.1 +17.2 0.4
07 17.06 С 5 н/о н/о +21.1 +15.6 71 +24 +24 комфорт 1018.2 1004.0
08 17.06 С 6 н/о н/о +22.2 +16.0 68 +26 +26 душно 1018.1 1004.0
09 17.06 С 5
{8}
н/о н/о +23.1 +17.3 70 +28 +28 душно 1018.3 1004.2
10 17.06 С 5 н/о н/о +23.4 +17.8 71 +29 +29 душно 1018.2 1004.1
11 17.06 С 5 н/о н/о +24.9 +18.6 68 +30 +30 душно 1017.9 1003.9
12 17.06 С 4
{8}
н/о н/о +25.3 +18.3 65 +30 +30 душно 1017.4 1003.4
13 17.06 С 4 н/о н/о +26.2 +18.1 61 +31 +31 очень
душно
1017.0 1003.1
14 17.06 В 3 н/о н/о +25.4 +17.3 61 +29 +29 душно 1016.4 1002.5
15 17.06 СЗ 2 н/о н/о +25.5 +20.1 72 +31 +31 очень
душно
1016.0 1002.1
16 17.06 СЗ 3 н/о н/о +19.8 +19.6 99 +23 +23 комфорт 1016.3 1002.1
17 17.06 СЗ 2 н/о н/о +20.6 +20.4 99 +26 +26 душно 1016.1 1001.9
18 17.06 С 2 н/о н/о +21.4 +20.7 96 +27 +27 душно 1016.2 1002.1 +26.8 24
19 17.06 С 4 н/о н/о +20.4 +18.7 90 +24 +24 комфорт 1016.4 1002.2
20 17.06 С 4 н/о н/о +19.6 +18.3 92 +22 +22 комфорт 1017.0 1002.8
21 17.06 ЮЗ 1 н/о н/о +19.9 +18.2 90 +24 +24 комфорт 1017.0 1002.8
22 17.06 З 1 н/о н/о +19.3 +18.8 97 +23 +23 комфорт 1017.1 1002.9

 

Местоположение метеостанции Шармеллек (Венгрия): широта 46.68 долгота 17.17 высота над уровнем моря 125 м.

В архиве по умолчанию представлена погода в Шармеллеке за последнюю неделю. Архивные данные за месяц целиком и за предыдущие месяцы, начиная с января 2011 года, Вы можете получить, выбрав интересующий диапазон дат из раскрывающегося списка и нажав кнопку "Ввод!".


*Определитесь, кто Вы:
робот инопланетянин человек

Внимание! Время в таблицах - всемирное. Для получения местного времени необходимо прибавить поправку, которая равна 1 ч.

Смотрите также архив погоды в соседних городах и на ближайших метеорологических станциях:

Погода в Надьканиже (Венгрия) (30 км)
Погода в Залаэгерсеге (Венгрия) (35 км)
Погода в Капошваре (Венгрия) (61 км)
Погода в Веспреме (Венгрия) (66 км)
Погода в Сентготтхарде (Венгрия) (70 км)
Погода в Шиофоке (Венгрия) (72 км)
Погода в Вараздине (Хорватия) (74 км)
Погода в Мурска-Соботе (Словения) (76 км)
Погода в Сомбатхее (Венгрия) (77 км)
Погода на Базе ВВС Папа (Венгрия) (80 км)

Пояснения к столбцам:

Ветер - указаны скорость ветра в м/с - средняя за 10 мин, порывы в срок и между сроками (в фигурных скобках) и направление, откуда дует ветер: С - северный, СВ - северо-восточный, В - восточный, ЮВ - юго-восточный, Ю - южный, ЮЗ - юго-западный, З - западный, СЗ - северо-западный.
Видимость - горизонтальная дальность видимости в метрах или километрах. При видимости от 1 до 10 км при отсутствии осадков обычно наблюдается дымка, при ухудшении видимости до 1 км и менее - туман. В сухую погоду видимость может ухудшаться дымом, пылью или мглою.
Явления - указаны атмосферные явления, наблюдавшиеся в срок или в последний час перед сроком; фигурными скобками обозначены явления, наблюдавшиеся между сроками (за 1-3 часа до срока); квадратными скобками обозначены град или гололедные отложения с указанием их диаметра в мм.
Облачность - указаны через наклонную черту общая и нижняя облачность в баллах и высота нижней границы облаков в метрах; квадратными скобками обозначены формы облаков: Ci - перистые, Cs - перисто-слоистые, Cc - перисто-кучевые, Ac - высококучевые, As - высокослоистые, Sc - слоисто-кучевые, Ns - слоисто-дождевые, Cu - кучевые, Cb - кучево-дождевые. Подробнее классификацию облаков см. в Атласе облаков (PDF).
T - Температура воздуха - температура, измеренная на высоте 2 м над землей.
Td - Температура точки росы - температура, при понижении до которой содержащийся в воздухе водяной пар достигнет насыщения.
f - Относительная влажность воздуха - влажноcть воздуха, измеренная на высоте 2 м над землей.
Te - Эффективная температура - температура, которую ощущает одетый по сезону человек в тени. Характеристика душности погоды. При расчете учитывается влияние влажности воздуха и скорости ветра на теплоощущения человека.
Tes - Эффективная температура на солнце - температура, которую ощущает человек, с поправкой на солнечный нагрев. Характеристика знойности погоды. Зависит от высоты солнца над горизонтом, облачности и скорости ветра. Ночью, в пасмурную погоду, а также при ветре 12 м/с и более поправка равна нулю.
P - Атмосферное давление - приведенное к уровню моря атмосферное давление.
Po - Атмосферное давление - измеренное на уровне метеостанции атмосферное давление.
Tmin - Минимальная температура - минимум температуры воздуха на высоте 2 м над землей.
Tmax - Максимальная температура - максимум температуры воздуха на высоте 2 м над землей.
R - Количество осадков - Количество выпавших осадков за период времени, мм. При наведении курсора мыши на число - период времени, за который выпало указанное количество осадков.
R24 - Количество осадков - Количество выпавших осадков за 24 часа, мм.
S - Снежный покров - Высота снежного покрова, см. При наведении курсора мыши на число - состояние снежного покрова и степень покрытия местности в баллах.